Albuquerque, NM

10:13 AM MDT on July 23, 2017 (GMT -0600)
Albuquerque International Sunport

Weather History for KABQ - April, 2014

Change the Weather History Date:

Sunday, April 27, 2014

  Actual Average Record
Temperature  
Mean Temperature 50 °F 60 °F  
Max Temperature 60 °F 73 °F 88 °F (1910)
Min Temperature 39 °F 47 °F 29 °F (1984)
Degree Days  
Heating Degree Days 15 6  
Month to date heating degree days 215 261  
Since 1 July heating degree days 3828 4088  
Cooling Degree Days 0 1  
Month to date cooling degree days 6 3  
Year to date cooling degree days 6 3  
Growing Degree Days 1 (Base 50)    
Moisture  
Dew Point 20 °F    
Average Humidity 40    
Maximum Humidity 64    
Minimum Humidity 15    
Precipitation  
Precipitation 0.00 in 0.02 in 0.29 in (2001)
Month to date precipitation 0.01 0.56  
Year to date precipitation 0.41 1.99  
Snow  
Snow 0.00 in - - ()
Month to date snowfall 0.0  
Since 1 July snowfall 6.6  
Snow Depth 0.00 in    
Sea Level Pressure  
Sea Level Pressure 29.63 in    
Wind  
Wind Speed 22 mph (West)    
Max Wind Speed 38 mph    
Max Gust Speed 51 mph    
Visibility 10 miles    
Events      
T = Trace of Precipitation, MM = Missing Value Source: NWS Daily Summary

Daily Weather History Graph

Daily Weather History Graph

Search for Another Location

Airport or City:

Trip Planner

Search our weather history database for the weather conditions in past years. The results will help you decide how hot, cold, wet, or windy it might be!

Date:

Astronomy

Apr. 27, 2014 Rise Set
Actual Time 6:19 AM MDT 7:48 PM MDT
Civil Twilight 5:53 AM MDT 8:15 PM MDT
Nautical Twilight 5:20 AM MDT 8:47 PM MDT
Astronomical Twilight 4:47 AM MDT 9:21 PM MDT
Moon 5:17 AM MDT (4/27) 6:28 PM MDT (4/27)
Length of Visible Light 14h 22m
Length of Day
13h 28m
Waning Crescent, 3% of the Moon is Illuminated
Apr 27
Waning Crescent
Apr 29
New
May 6
First Quarter
May 14
Full
May 21
Last Quarter

Hourly Weather History & Observations

Time (MDT) Temp. Windchill Dew Point Humidity Pressure Visibility Wind Dir Wind Speed Gust Speed Precip Events Conditions
12:52 AM 39.9 °F 35.8 °F 28.0 °F 63% 29.62 in 10.0 mi SSW 5.8 mph - N/A   Mostly Cloudy
1:52 AM 41.0 °F 34.7 °F 26.1 °F 55% 29.62 in 10.0 mi South 10.4 mph 20.7 mph N/A   Mostly Cloudy
2:52 AM 41.0 °F 34.3 °F 26.1 °F 55% 29.59 in 10.0 mi SSW 11.5 mph - N/A   Mostly Cloudy
3:52 AM 43.0 °F 34.2 °F 26.1 °F 51% 29.58 in 10.0 mi WSW 20.7 mph 28.8 mph N/A   Mostly Cloudy
4:52 AM 43.0 °F 35.4 °F 27.0 °F 53% 29.57 in 10.0 mi WSW 16.1 mph - N/A   Mostly Cloudy
5:52 AM 43.0 °F 35.1 °F 27.0 °F 53% 29.61 in 10.0 mi WSW 17.3 mph - N/A   Mostly Cloudy
6:52 AM 42.1 °F 34.5 °F 27.0 °F 55% 29.66 in 10.0 mi WSW 15.0 mph - N/A   Mostly Cloudy
7:52 AM 45.0 °F 38.2 °F 27.0 °F 49% 29.65 in 10.0 mi WSW 15.0 mph - N/A   Mostly Cloudy
8:52 AM 48.9 °F - 26.1 °F 41% 29.65 in 10.0 mi West 28.8 mph 34.5 mph N/A   Scattered Clouds
9:52 AM 51.1 °F - 25.0 °F 36% 29.65 in 10.0 mi West 32.2 mph 41.4 mph N/A   Scattered Clouds
10:52 AM 54.0 °F - 19.0 °F 25% 29.64 in 10.0 mi WNW 28.8 mph 42.6 mph N/A   Mostly Cloudy
11:52 AM 55.9 °F - 17.1 °F 22% 29.64 in 10.0 mi West 24.2 mph 34.5 mph N/A   Mostly Cloudy
12:52 PM 55.9 °F - 18.0 °F 23% 29.63 in 10.0 mi WNW 32.2 mph 42.6 mph N/A   Mostly Cloudy
1:52 PM 57.9 °F - 19.9 °F 23% 29.61 in 10.0 mi WNW 26.5 mph 43.7 mph N/A   Mostly Cloudy
2:52 PM 57.9 °F - 16.0 °F 19% 29.60 in 10.0 mi WNW 32.2 mph 41.4 mph N/A   Mostly Cloudy
3:52 PM 55.0 °F - 26.1 °F 33% 29.61 in 10.0 mi NNW 17.3 mph - N/A   Mostly Cloudy
4:52 PM 60.1 °F - 12.9 °F 16% 29.58 in 10.0 mi NW 39.1 mph 50.6 mph N/A   Widespread Dust
5:52 PM 60.1 °F - 12.0 °F 15% 29.59 in 10.0 mi NW 34.5 mph 46.0 mph N/A   Widespread Dust
6:52 PM 57.9 °F - 12.9 °F 17% 29.62 in 10.0 mi WNW 32.2 mph 39.1 mph N/A   Widespread Dust
7:52 PM 55.0 °F - 15.1 °F 21% 29.66 in 10.0 mi WNW 24.2 mph 36.8 mph N/A   Partly Cloudy
8:52 PM 54.0 °F - 15.1 °F 22% 29.68 in 10.0 mi WNW 25.3 mph 33.4 mph N/A   Partly Cloudy
9:52 PM 51.1 °F - 15.1 °F 24% 29.73 in 10.0 mi WNW 12.7 mph - N/A   Partly Cloudy
10:52 PM 50.0 °F - 12.9 °F 23% 29.72 in 10.0 mi WNW 11.5 mph - N/A   Clear
11:52 PM 50.0 °F - 14.0 °F 24% 29.72 in 10.0 mi NW 13.8 mph - N/A   Clear